Time,TemperatureF,DewpointF,PressureIn,WindDirection,WindDirectionDegrees,WindSpeedMPH,WindSpeedGustMPH,Humidity,HourlyPrecipIn,Conditions,Clouds,dailyrainin,SoftwareType,DateUTC
2013-08-13 00:02:00,68.7,66.0,30.03,North,0,0.0,0.0,91,0.00,,,0.00,WUHU21623XXSP,2013-08-13 05:02:00,
2013-08-13 00:07:00,68.5,65.8,30.02,North,0,0.0,0.0,91,0.00,,,0.00,WUHU21623XXSP,2013-08-13 05:07:00,
2013-08-13 00:12:00,68.5,65.8,30.02,North,0,0.0,0.0,91,0.00,,,0.00,WUHU21623XXSP,2013-08-13 05:12:00,
2013-08-13 00:17:00,68.4,65.6,30.02,North,0,0.0,0.0,91,0.00,,,0.00,WUHU21623XXSP,2013-08-13 05:17:00,
2013-08-13 00:22:00,68.4,65.6,30.03,North,0,0.0,0.0,91,0.00,,,0.00,WUHU21623XXSP,2013-08-13 05:22:00,
2013-08-13 00:27:00,68.2,65.4,30.03,North,0,0.0,0.0,91,0.00,,,0.00,WUHU21623XXSP,2013-08-13 05:27:00,
2013-08-13 00:32:00,68.2,65.4,30.03,North,0,0.0,0.0,91,0.00,,,0.00,WUHU21623XXSP,2013-08-13 05:32:00,
2013-08-13 00:37:00,67.8,65.1,30.02,North,0,0.0,0.0,91,0.00,,,0.00,WUHU21623XXSP,2013-08-13 05:37:00,
2013-08-13 00:42:00,67.8,65.1,30.02,North,0,0.0,0.0,91,0.00,,,0.00,WUHU21623XXSP,2013-08-13 05:42:00,
2013-08-13 00:47:00,67.8,65.1,30.03,North,0,0.0,0.0,91,0.00,,,0.00,WUHU21623XXSP,2013-08-13 05:47:00,
2013-08-13 00:52:00,67.6,64.9,30.02,North,0,0.0,0.0,91,0.00,,,0.00,WUHU21623XXSP,2013-08-13 05:52:00,
2013-08-13 00:57:00,67.6,64.9,30.03,North,0,0.0,0.0,91,0.00,,,0.00,WUHU21623XXSP,2013-08-13 05:57:00,
2013-08-13 01:02:00,67.5,64.7,30.02,North,0,0.0,0.0,91,0.00,,,0.00,WUHU21623XXSP,2013-08-13 06:02:00,
2013-08-13 01:07:00,67.3,64.5,30.02,North,0,0.0,0.0,91,0.00,,,0.00,WUHU21623XXSP,2013-08-13 06:07:00,
2013-08-13 01:12:00,67.3,64.5,30.03,North,0,0.0,0.0,91,0.00,,,0.00,WUHU21623XXSP,2013-08-13 06:12:00,
2013-08-13 01:17:00,67.1,64.3,30.03,North,0,0.0,0.0,91,0.00,,,0.00,WUHU21623XXSP,2013-08-13 06:17:00,
2013-08-13 01:22:00,66.9,64.2,30.03,North,0,0.0,0.0,91,0.00,,,0.00,WUHU21623XXSP,2013-08-13 06:22:00,
2013-08-13 01:27:00,66.9,64.2,30.02,North,0,0.0,0.0,91,0.00,,,0.00,WUHU21623XXSP,2013-08-13 06:27:00,
2013-08-13 01:32:00,66.9,64.2,30.02,North,0,0.0,0.0,91,0.00,,,0.00,WUHU21623XXSP,2013-08-13 06:32:00,
2013-08-13 01:37:00,66.7,64.0,30.02,North,0,0.0,0.0,91,0.00,,,0.00,WUHU21623XXSP,2013-08-13 06:37:00,
2013-08-13 01:42:00,66.7,64.0,30.02,North,0,0.0,0.0,91,0.00,,,0.00,WUHU21623XXSP,2013-08-13 06:42:00,
2013-08-13 01:47:00,66.7,64.0,30.02,North,0,0.0,0.0,91,0.00,,,0.00,WUHU21623XXSP,2013-08-13 06:47:00,
2013-08-13 01:52:00,66.6,63.8,30.02,North,0,0.0,0.0,91,0.00,,,0.00,WUHU21623XXSP,2013-08-13 06:52:00,
2013-08-13 01:57:00,66.4,63.8,30.02,North,0,0.0,0.0,91,0.00,,,0.00,WUHU21623XXSP,2013-08-13 06:57:00,
2013-08-13 02:02:00,66.4,63.6,30.02,North,0,0.0,0.0,91,0.00,,,0.00,WUHU21623XXSP,2013-08-13 07:02:00,
2013-08-13 02:07:00,66.4,63.6,30.02,North,0,0.0,0.0,91,0.00,,,0.00,WUHU21623XXSP,2013-08-13 07:07:00,
2013-08-13 02:12:00,66.2,63.4,30.02,North,0,0.0,0.0,91,0.00,,,0.00,WUHU21623XXSP,2013-08-13 07:12:00,
2013-08-13 02:17:00,66.2,63.4,30.03,North,0,0.0,0.0,91,0.00,,,0.00,WUHU21623XXSP,2013-08-13 07:17:00,
2013-08-13 02:22:00,66.2,63.4,30.02,North,0,0.0,0.0,91,0.00,,,0.00,WUHU21623XXSP,2013-08-13 07:22:00,
2013-08-13 02:27:00,66.0,63.3,30.02,North,0,0.0,0.0,91,0.00,,,0.00,WUHU21623XXSP,2013-08-13 07:27:00,
2013-08-13 02:32:00,66.0,63.3,30.02,North,0,0.0,0.0,91,0.00,,,0.00,WUHU21623XXSP,2013-08-13 07:32:00,
2013-08-13 02:37:00,66.0,63.3,30.01,North,0,0.0,0.0,91,0.00,,,0.00,WUHU21623XXSP,2013-08-13 07:37:00,
2013-08-13 02:42:00,66.0,63.3,30.02,North,0,0.0,0.0,91,0.00,,,0.00,WUHU21623XXSP,2013-08-13 07:42:00,
2013-08-13 02:47:00,66.0,63.3,30.02,North,0,0.0,0.0,91,0.00,,,0.00,WUHU21623XXSP,2013-08-13 07:47:00,
2013-08-13 02:52:00,66.0,63.3,30.02,North,0,0.0,0.0,91,0.00,,,0.00,WUHU21623XXSP,2013-08-13 07:52:00,
2013-08-13 02:57:00,65.8,63.1,30.02,North,0,0.0,0.0,91,0.00,,,0.00,WUHU21623XXSP,2013-08-13 07:57:00,
2013-08-13 03:02:00,65.8,63.1,30.02,North,0,0.0,0.0,91,0.00,,,0.00,WUHU21623XXSP,2013-08-13 08:02:00,
2013-08-13 03:07:00,65.8,63.1,30.02,North,0,0.0,0.0,91,0.00,,,0.00,WUHU21623XXSP,2013-08-13 08:07:00,
2013-08-13 03:12:00,65.8,63.1,30.02,North,0,0.0,0.0,91,0.00,,,0.00,WUHU21623XXSP,2013-08-13 08:12:00,
2013-08-13 12:54:00,77.7,64.1,30.12,North,0,0.0,0.0,63,0.00,,,0.00,WUHU21623XXSP,2013-08-13 17:54:00,
2013-08-13 12:59:00,77.9,63.4,30.11,North,0,0.0,0.0,61,0.00,,,0.00,WUHU21623XXSP,2013-08-13 17:59:00,
2013-08-13 13:04:00,77.9,63.0,30.11,North,0,0.0,0.0,60,0.00,,,0.00,WUHU21623XXSP,2013-08-13 18:04:00,
2013-08-13 13:09:00,78.1,63.1,30.11,North,0,0.0,0.0,60,0.00,,,0.00,WUHU21623XXSP,2013-08-13 18:09:00,
2013-08-13 13:14:00,78.3,63.8,30.11,North,0,0.0,0.0,61,0.00,,,0.00,WUHU21623XXSP,2013-08-13 18:14:00,
2013-08-13 13:19:00,78.3,62.8,30.11,North,0,0.0,0.0,59,0.00,,,0.00,WUHU21623XXSP,2013-08-13 18:19:00,
2013-08-13 13:24:00,78.3,63.3,30.11,North,0,0.0,0.0,60,0.00,,,0.00,WUHU21623XXSP,2013-08-13 18:24:00,
2013-08-13 13:29:00,78.6,63.7,30.11,North,0,0.0,0.0,60,0.00,,,0.00,WUHU21623XXSP,2013-08-13 18:29:00,
2013-08-13 13:34:00,78.6,62.6,30.11,North,0,0.0,0.0,58,0.00,,,0.00,WUHU21623XXSP,2013-08-13 18:34:00,
2013-08-13 13:39:00,78.6,62.6,30.11,North,0,0.0,0.0,58,0.00,,,0.00,WUHU21623XXSP,2013-08-13 18:39:00,
2013-08-13 13:44:00,78.6,62.6,30.11,North,0,0.0,0.0,57,0.00,,,0.00,WUHU21623XXSP,2013-08-13 18:44:00,
2013-08-13 13:49:00,78.6,62.1,30.11,North,0,0.0,0.0,57,0.00,,,0.00,WUHU21623XXSP,2013-08-13 18:49:00,
2013-08-13 13:54:00,78.6,62.6,30.11,North,0,0.0,0.0,58,0.00,,,0.00,WUHU21623XXSP,2013-08-13 18:54:00,
2013-08-13 13:59:00,78.4,62.5,30.11,North,0,0.0,0.0,58,0.00,,,0.00,WUHU21623XXSP,2013-08-13 18:59:00,
2013-08-13 14:04:00,78.4,61.9,30.10,North,0,0.0,0.0,57,0.00,,,0.00,WUHU21623XXSP,2013-08-13 19:04:00,
2013-08-13 14:09:00,79.0,62.6,30.10,North,0,0.0,0.0,59,0.00,,,0.00,WUHU21623XXSP,2013-08-13 19:09:00,
2013-08-13 14:14:00,80.1,62.9,30.10,North,0,0.0,0.0,57,0.00,,,0.00,WUHU21623XXSP,2013-08-13 19:14:00,
2013-08-13 14:19:00,80.4,63.2,30.10,North,0,0.0,0.0,56,0.00,,,0.00,WUHU21623XXSP,2013-08-13 19:19:00,
2013-08-13 23:21:00,65.8,57.3,30.16,North,0,0.0,0.0,74,0.00,,,0.00,WUHU21623XXSP,2013-08-14 04:21:00,
2013-08-13 23:23:00,65.8,57.3,30.16,North,0,0.0,0.0,74,0.00,,,0.00,WUHU21623XXSP,2013-08-14 04:23:00,
2013-08-13 23:28:00,65.7,57.5,30.16,North,0,0.0,0.0,75,0.00,,,0.00,WUHU21623XXSP,2013-08-14 04:28:00,
2013-08-13 23:31:00,65.5,57.3,30.17,North,0,0.0,0.0,75,0.00,,,0.00,WUHU21623XXSP,2013-08-14 04:31:00,
2013-08-13 23:36:00,65.5,57.3,30.17,North,0,0.0,0.0,75,0.00,,,0.00,WUHU21623XXSP,2013-08-14 04:36:00,
2013-08-13 23:41:00,65.3,57.1,30.17,North,0,0.0,0.0,75,0.00,,,0.00,WUHU21623XXSP,2013-08-14 04:41:00,
2013-08-13 23:43:00,65.1,57.0,30.16,North,0,0.0,0.0,75,0.00,,,0.00,WUHU21623XXSP,2013-08-14 04:43:00,
2013-08-13 23:48:00,65.1,57.3,30.17,North,0,0.0,0.0,76,0.00,,,0.00,WUHU21623XXSP,2013-08-14 04:48:00,
2013-08-13 23:53:00,64.9,57.2,30.17,North,0,0.0,0.0,76,0.00,,,0.00,WUHU21623XXSP,2013-08-14 04:53:00,
2013-08-13 23:58:00,64.8,57.0,30.17,North,0,0.0,0.0,76,0.00,,,0.00,WUHU21623XXSP,2013-08-14 04:58:00,